South Hill, VA

6:37 PM EST on November 15, 2019 (GMT -0500)
Mecklenburg-Brunswick Regional

Weather History for KAVC - August, 2019

Change the Weather History Date:

Friday, August 30, 2019

  Actual Average (KEMV) Record (KEMV)
Temperature  
Mean Temperature 71 °F -  
Max Temperature 89 °F 85 °F 99 °F (1993)
Min Temperature 54 °F 60 °F 43 °F (1982)
Cooling Degree Days 6    
Growing Degree Days 21 (Base 50)    
Moisture  
Dew Point 59 °F    
Average Humidity 73    
Maximum Humidity 100    
Minimum Humidity 31    
Precipitation  
Precipitation 0.00 in - - ()
Sea Level Pressure  
Sea Level Pressure 30.15 in    
Wind  
Wind Speed 1 mph (SW)    
Max Wind Speed 10 mph    
Max Gust Speed 18 mph    
Visibility 10 miles    
Events      
Averages and records for this station are not official NWS values.
T = Trace of Precipitation, MM = Missing Value Source: NWS Daily Summary

Daily Weather History Graph

Daily Weather History Graph

Search for Another Location

Airport or City:

Astronomy

Aug. 30, 2019 Rise Set
Actual Time 6:41 AM EDT 7:43 PM EDT
Civil Twilight 6:14 AM EDT 8:10 PM EDT
Nautical Twilight 5:43 AM EDT 8:41 PM EDT
Astronomical Twilight 5:10 AM EDT 9:14 PM EDT
Moon 6:41 AM EDT (8/30) 8:18 PM EDT (8/30)
Length of Visible Light 13h 55m
Length of Day
13h 02m
New Moon, 0% of the Moon is Illuminated
Aug 30
New Moon
Sep 5
First Quarter
Sep 14
Full
Sep 21
Last Quarter
Sep 28
New

Hourly Weather History & Observations

Time (EDT) Temp. Heat Index Dew Point Humidity Pressure Visibility Wind Dir Wind Speed Gust Speed Precip Events Conditions
12:15 AM 59.7 °F - 59.5 °F 99% 30.13 in 10.0 mi Calm Calm - N/A   Clear
12:35 AM 59.0 °F - 59.0 °F 100% 30.13 in 10.0 mi Calm Calm - N/A   Clear
12:55 AM 59.4 °F - 59.4 °F 100% 30.13 in 10.0 mi Calm Calm - N/A   Clear
1:15 AM 59.2 °F - 59.2 °F 100% 30.13 in 10.0 mi Calm Calm - N/A   Clear
1:35 AM 59.2 °F - 59.0 °F 99% 30.14 in 10.0 mi Calm Calm - N/A   Clear
1:55 AM 60.1 °F - 59.9 °F 99% 30.14 in 10.0 mi Calm Calm - N/A   Clear
2:15 AM 59.2 °F - 59.2 °F 100% 30.13 in 10.0 mi Calm Calm - N/A   Clear
2:35 AM 58.1 °F - 58.1 °F 100% 30.13 in 10.0 mi Calm Calm - N/A   Clear
2:55 AM 57.2 °F - 57.2 °F 100% 30.13 in 10.0 mi Calm Calm - N/A   Clear
3:15 AM 56.7 °F - 56.7 °F 100% 30.13 in 10.0 mi Calm Calm - N/A   Clear
3:35 AM 57.6 °F - 57.6 °F 100% 30.13 in 10.0 mi Calm Calm - N/A   Clear
3:55 AM 56.3 °F - 56.3 °F 100% 30.13 in 10.0 mi Calm Calm - N/A   Clear
4:15 AM 56.3 °F - 56.3 °F 100% 30.13 in 10.0 mi Calm Calm - N/A   Clear
4:35 AM 56.3 °F - 56.3 °F 100% 30.13 in 10.0 mi Calm Calm - N/A   Clear
4:55 AM 55.9 °F - 55.9 °F 100% 30.13 in 10.0 mi Calm Calm - N/A   Clear
5:15 AM 55.8 °F - 55.8 °F 100% 30.14 in 10.0 mi Calm Calm - N/A   Clear
5:35 AM 55.2 °F - 55.2 °F 100% 30.14 in 10.0 mi Calm Calm - N/A   Clear
5:55 AM 56.1 °F - 56.1 °F 100% 30.14 in 10.0 mi Calm Calm - N/A   Clear
6:15 AM 54.5 °F - 54.5 °F 100% 30.15 in 10.0 mi Calm Calm - N/A   Clear
6:35 AM 54.5 °F - 54.5 °F 100% 30.16 in 10.0 mi Calm Calm - N/A   Clear
6:55 AM 54.5 °F - 54.5 °F 100% 30.16 in 10.0 mi Calm Calm - N/A   Clear
7:15 AM 54.9 °F - 54.9 °F 100% 30.16 in 10.0 mi Calm Calm - N/A   Clear
7:35 AM 55.8 °F - 55.8 °F 100% 30.16 in 10.0 mi Calm Calm - N/A   Clear
7:55 AM 58.3 °F - 58.3 °F 100% 30.16 in 10.0 mi Calm Calm - N/A   Clear
8:15 AM 63.0 °F - 62.4 °F 98% 30.16 in 10.0 mi Calm Calm - N/A   Clear
8:35 AM 65.8 °F - 63.9 °F 93% 30.17 in 10.0 mi South 3.5 mph - N/A   Clear
8:55 AM 68.2 °F - 64.9 °F 89% 30.17 in 10.0 mi South 3.5 mph - N/A   Clear
9:15 AM 71.1 °F - 65.3 °F 82% 30.17 in 10.0 mi Calm Calm - N/A   Clear
9:35 AM 74.3 °F - 64.4 °F 71% 30.17 in 10.0 mi Calm Calm - N/A   Clear
9:55 AM 76.3 °F - 64.4 °F 67% 30.18 in 10.0 mi SW 3.5 mph - N/A   Clear
10:15 AM 78.3 °F - 62.4 °F 58% 30.19 in 10.0 mi SW 5.8 mph - N/A   Clear
10:55 AM 80.6 °F 81.9 °F 63.3 °F 55% 30.18 in 10.0 mi SSW 4.6 mph - N/A   Clear
11:15 AM 82.6 °F 82.9 °F 60.6 °F 47% 30.19 in 10.0 mi West 4.6 mph - N/A   Clear
11:35 AM 83.5 °F 83.7 °F 60.4 °F 46% 30.19 in 10.0 mi SW 6.9 mph - N/A   Clear
11:55 AM 83.8 °F 84.3 °F 61.3 °F 47% 30.19 in 10.0 mi SSW 9.2 mph - N/A   Clear
12:15 PM 84.4 °F 83.5 °F 57.0 °F 39% 30.18 in 10.0 mi WSW 8.1 mph - N/A   Clear
12:35 PM 85.5 °F 84.3 °F 56.7 °F 37% 30.19 in 10.0 mi SW 3.5 mph - N/A   Clear
12:55 PM 86.0 °F 85.0 °F 57.7 °F 38% 30.18 in 10.0 mi SSW 6.9 mph - N/A   Clear
1:15 PM 85.6 °F 84.5 °F 56.8 °F 37% 30.17 in 10.0 mi WSW 8.1 mph - N/A   Clear
1:35 PM 85.5 °F 84.0 °F 55.2 °F 35% 30.17 in 10.0 mi Calm Calm - N/A   Clear
1:55 PM 86.2 °F 85.2 °F 57.6 °F 38% 30.16 in 10.0 mi SW 10.4 mph 16.1 mph N/A   Clear
2:15 PM 87.4 °F 86.3 °F 57.2 °F 36% 30.15 in 10.0 mi WNW 3.5 mph - N/A   Clear
2:35 PM 88.5 °F 87.1 °F 57.2 °F 34% 30.15 in 10.0 mi SSW 6.9 mph - N/A   Clear
2:55 PM 87.3 °F 86.1 °F 57.4 °F 36% 30.14 in 10.0 mi SSW 6.9 mph - N/A   Clear
3:15 PM 88.7 °F 87.5 °F 57.6 °F 35% 30.14 in 10.0 mi South 6.9 mph 18.4 mph N/A   Clear
3:35 PM 88.2 °F 86.1 °F 53.8 °F 31% 30.14 in 10.0 mi WNW 3.5 mph - N/A   Clear
3:55 PM 88.2 °F 86.3 °F 54.7 °F 32% 30.13 in 10.0 mi West 4.6 mph - N/A   Clear
4:15 PM 88.0 °F 85.9 °F 54.1 °F 31% 30.13 in 10.0 mi Calm Calm - N/A   Clear
4:35 PM 87.8 °F 85.9 °F 54.5 °F 32% 30.12 in 10.0 mi Calm Calm - N/A   Clear
4:55 PM 87.8 °F 86.3 °F 56.5 °F 34% 30.12 in 10.0 mi South 8.1 mph - N/A   Clear
5:15 PM 88.0 °F 86.5 °F 56.5 °F 34% 30.12 in 10.0 mi Calm Calm - N/A   Clear
5:35 PM 87.8 °F 86.3 °F 56.5 °F 34% 30.12 in 10.0 mi Calm Calm - N/A   Clear
5:55 PM 87.3 °F 85.9 °F 56.3 °F 35% 30.13 in 10.0 mi Calm Calm - N/A   Clear
6:15 PM 87.1 °F 85.9 °F 57.0 °F 36% 30.13 in 10.0 mi South 3.5 mph - N/A   Clear
6:35 PM 86.0 °F 85.4 °F 59.0 °F 40% 30.13 in 10.0 mi Calm Calm - N/A   Clear
6:55 PM 86.0 °F 85.4 °F 59.2 °F 40% 30.14 in 10.0 mi Calm Calm - N/A   Clear
7:15 PM 81.0 °F 82.3 °F 63.3 °F 55% 30.14 in 10.0 mi Calm Calm - N/A   Clear
7:35 PM 77.0 °F - 62.8 °F 61% 30.14 in 10.0 mi Calm Calm - N/A   Clear
7:55 PM 73.6 °F - 65.5 °F 76% 30.14 in 10.0 mi Calm Calm - N/A   Clear
8:15 PM 71.1 °F - 64.6 °F 80% 30.15 in 10.0 mi Calm Calm - N/A   Clear
8:35 PM 70.3 °F - 64.6 °F 82% 30.16 in 10.0 mi Calm Calm - N/A   Clear
8:55 PM 67.6 °F - 64.9 °F 91% 30.17 in 10.0 mi Calm Calm - N/A   Clear
9:15 PM 67.1 °F - 64.6 °F 92% 30.18 in 10.0 mi Calm Calm - N/A   Clear
9:35 PM 66.6 °F - 63.9 °F 91% 30.18 in 10.0 mi Calm Calm - N/A   Clear
10:15 PM 65.3 °F - 63.7 °F 94% 30.19 in 10.0 mi Calm Calm - N/A   Clear
10:35 PM 64.4 °F - 63.5 °F 97% 30.20 in 10.0 mi Calm Calm - N/A   Clear
10:55 PM 64.2 °F - 63.5 °F 98% 30.20 in 10.0 mi Calm Calm - N/A   Clear
11:15 PM 63.9 °F - 63.3 °F 98% 30.20 in 10.0 mi Calm Calm - N/A   Clear
11:35 PM 63.1 °F - 63.0 °F 99% 30.20 in 10.0 mi Calm Calm - N/A   Clear
11:55 PM 63.0 °F - 63.0 °F 100% 30.20 in 10.0 mi Calm Calm - N/A   Clear